Regional Weather Roundup
Issued by NWS

Home | Current Version | Previous Version | Text Only | Print | Product List | Glossary On
Versions: 1 2 3 4 5 6 7 8 9 10 11 12 13 14 15 16 17 18 19 20 21 22 23 24 25 26 27 28 29 30 31 32 33 34 35 36 37 38 39 40 41 42 43 44 45 46 47 48 49 50
000
ASUS43 KMKX 121600
RWRWI

WISCONSIN REGIONAL WEATHER ROUNDUP
NATIONAL WEATHER SERVICE MILWAUKEE/SULLIVAN WI
1100 AM CDT SAT JUL 12 2014

NOTE: "FAIR" INDICATES FEW OR NO CLOUDS BELOW 12,000 FEET WITH NO
SIGNIFICANT WEATHER AND/OR OBSTRUCTIONS TO VISIBILITY.

WIZ001-002-006>008-014>016-023>028-121700-
NORTHWEST WISCONSIN

CITY           SKY/WX    TMP DP  RH WIND       PRES   REMARKS
SUPERIOR ARPT  PTSUNNY   71  61  70 CALM      29.99F
ASHLAND        PTSUNNY   72  59  63 NE6       30.00F
HAYWARD        PTSUNNY   75  63  66 NE3       29.99F
SIREN          CLOUDY    73  64  72 NE3       30.00S
RICE LAKE      CLOUDY    72  68  88 CALM      30.01S FOG
LADYSMITH      CLOUDY    71  68  91 CALM      30.02F FOG
EAU CLAIRE     NOT AVBL
MENOMONIE      CLOUDY    73  69  89 CALM      29.99F
NEW RICHMOND   CLOUDY    73  70  91 CALM      29.99F FOG
OSCEOLA        CLOUDY    73  72  98 CALM      30.01S FOG
$$

WIZ003>005-009-010-017-018-121700-
NORTH CENTRAL WISCONSIN

CITY           SKY/WX    TMP DP  RH WIND       PRES   REMARKS
WOODRUFF       PTSUNNY   78  69  73 W3        30.00F HX  80
RHINELANDER    PTSUNNY   73  64  73 CALM      30.02F
EAGLE RIVER    PTSUNNY   74  63  68 W3        30.00F
LAND O LAKES   PTSUNNY   76  60  57 CALM      30.01F
PHILLIPS       CLOUDY    70  67  88 CALM      30.01S
TOMAHAWK       CLOUDY    71  66  84 CALM      30.02F
MEDFORD        CLOUDY    72  68  89 CALM      30.01F
MERRILL        CLOUDY    74  68  82 CALM      30.00F
$$

WIZ029-030-035-036-043>047-121700-
CENTRAL WISCONSIN

CITY           SKY/WX    TMP DP  RH WIND       PRES   REMARKS
WAUSAU         CLOUDY    74  68  81 W6        29.99F
MOSINEE        MOSUNNY   73  70  88 NW5       30.01F
MARSHFIELD     CLOUDY    73  69  87 CALM      30.00F
STEVENS POINT  CLOUDY    71  65  82 CALM      30.01F
WAUPACA        CLOUDY    76  68  75 CALM      29.99F
WAUTOMA        NOT AVBL
WISC RAPIDS    CLOUDY    75  67  76 CALM      30.01S
CAMP DOUGLAS   NOT AVBL
$$

WIZ011>013-019>022-031-037>040-048>050-121700-
NORTHEAST WISCONSIN

CITY           SKY/WX    TMP DP  RH WIND       PRES   REMARKS
ANTIGO         CLOUDY    73  68  85 W3        30.01F
STURGEON BAY   CLOUDY    73  64  73 S5        30.00F
GREEN BAY      CLOUDY    76  67  73 CALM      29.98F
MANITOWOC      NOT AVBL
APPLETON       PTSUNNY   75  64  69 CALM      29.99F
CLINTONVILLE   CLOUDY    72  64  78 CALM      29.99F
OSHKOSH        CLOUDY    77  67  71 CALM      29.99F
$$

WIZ032>034-041-042-053>061-121700-
SOUTHWEST WISCONSIN

CITY           SKY/WX    TMP DP  RH WIND       PRES   REMARKS
LA CROSSE      CLOUDY    76  69  79 N5        29.97F
SPARTA         CLOUDY    74  67  78 CALM      29.99F
VIROQUA        FAIR      73  71  95 N9        29.97F
BOSCOBEL       CLOUDY    77  69  76 CALM      29.99R
PRAIRIE DU CHI PTSUNNY   76  68  75 CALM      29.98R
PLATTEVILLE    FAIR      76  70  83 N3        30.00R
$$

WIZ056-057-062-063-064-067-068-121700-
SOUTH CENTRAL WISCONSIN

CITY           SKY/WX    TMP DP  RH WIND       PRES   REMARKS
BARABOO/DELLS  CLOUDY    73  66  78 NE7       29.97F
LONE ROCK      NOT AVBL
WATERTOWN      CLOUDY    74  67  78 N5        29.98F
MADISON        CLOUDY    76  67  73 NE12      29.96F
MIDDLETON      FAIR      76  67  73 NE8       29.97F
MONROE         CLOUDY    72  68  88 NE5       29.97S
JANESVILLE     PTSUNNY   75  66  73 NE8       29.96F
$$

WIZ051-052-058>065-066-070>072-121700-
SOUTHEAST WISCONSIN

CITY           SKY/WX    TMP DP  RH WIND       PRES   REMARKS
MILWAUKEE      CLOUDY    76  66  71 SW3       30.00F
WAUKESHA       MOSUNNY   72  66  83 CALM      30.00F
MILWAUKEE/TIMM MOSUNNY   73  64  73 S5        30.01F
RACINE         CLOUDY    76  68  76 S5        30.02F
BURLINGTON     CLOUDY    73  66  78 CALM      29.99F
KENOSHA        CLOUDY    74  70  87 S9        30.01F
FOND DU LAC    CLOUDY    75  65  70 CALM      29.99F
SHEBOYGAN      CLOUDY    73  64  73 S3        30.00F
WEST BEND      CLOUDY    73  63  68 CALM      30.00F
JUNEAU         CLOUDY    73  51  45 CALM      30.01F
$$

LSZ147-162-121700-
LAKE SUPERIOR

STATION/POSITION TIME  TEMP    WIND        PRES    WAVE
                       AIR SEA DIR/SP/G            HT/PER
                 (UTC) (F)     (DEG/KT/KT) (MB)    (FT/S)
W MID LAKE BUOY  1450   45 38  260/  6/  8 1015.7F   0
PORT WING        1540   61     300/  4/  7 1015.2F
SAXON HARBOR     1540             CALM     1015.9S
$$

LMZ867-665-643>646-121700-
LAKE MICHIGAN

STATION/POSITION TIME  TEMP    WIND        PRES    WAVE
                       AIR SEA DIR/SP/G            HT/PER
                 (UTC) (F)     (DEG/KT/KT) (MB)    (FT/S)
N MID LAKE BUOY  1450   57 55  210/ 14/ 16 1015.5F   2/ 4
NORTHPORT PIER   1500   65     150/  5/  7 1015.6F
KEWAUNEE LAKESHO 1500   54     170/  5/  8 1016.9F
SHEBOYGAN LAKESH 1500   63     150/  8/  8 1016.3F
PORT WASHINGTON  1500   65      CALM  /  1 1016.9F
MILWAUKEE LAKESH 1500   63      90/  2/  3   N/A
S MID LAKE BUOY  1450   63 62  360/  2/  4 1017.4F   1/ 3
KENOSHA   LAKESH 1500   69     210/  6/  9   N/A
$$

TC  - TEMPERATURE IN CELSIUS
VSB - VISIBILITY IN STATUTE MILES
WCI - WIND CHILL INDEX
HX  - HEAT INDEX



USA.gov is the U.S. government's official web portal to all federal, state and local government web resources and services.